Rbgn^[z[y[W
メイン
   新天体発見情報
     Comet P/2018 V5 (Trujillo-Sheppard)
投稿するにはまず登録を

スレッド表示 | 古いものから 前のトピック | 次のトピック | 下へ
投稿者 スレッド
佐藤裕久
投稿日時: 2019-3-1 18:26
モデレータ
登録日: 2005-6-12
居住地: 日本
投稿: 2573
オンライン
Comet P/2018 V5 (Trujillo-Sheppard)

S. S. Sheppardの通報によると、去年11月、C. A. Trujilloは、SheppardがMauna Keaにある
8.2-m すばる望遠鏡で得たCCD画像から彗星を発見した。
2018年11月7日には、明らかにp.a. 276°に約9"長い。2019年1月8.25日〜8.27日UTに得たフォ
ローアップイメージはp.a. 277°に19"の尾が見えた。
小惑星センターのPCCP webpageに公表後、R. Werykは2017年と2018年の間に、Haleakalaにある
1.8-m Pan-STARRS1望遠鏡で得た多数の発見前画像を見つけた。
光度は2017年9月28日〜30日の間は23.1等〜23.7等、2017年10月28.5日は22等〜23等、2017年
11月17.4日は22.3等、2017年11月20.3日は22.4等、そして2018年8月18.6日UTは23.3等だった。
2017年10月28日、4枚のイメージのスタックでは、FWHM(半値全幅)はシーイング1".1に対し
この彗星は1".3であった。
佐藤英貴氏(東京都文京区, iTelescope 天文台, 0.43-m f/6.8 アストログラフ, Mayhill近郊, 
ニューメキシコ州, 遠隔操作)によると、1月25.1日UT、120秒露出20枚のスタックで、p.a.315°
に尾の気配があるのに気づいた。強く集光した6"のコマらしいものがあり、5".7の円形範囲で
測定した光度は21.5等であった。

発見位置は次のとおり、

     2018 UT             R.A. (2000) Decl.       Mag.   Observer
     Nov.  6.52058    5 35 49.31   +10 38 07.7   22.2   Sheppard
           7.64290    5 35 33.42   +10 35 44.4   22.2     "

楕円軌道軌道要素と位置推算表は次のとおり、

Orbital elements:
    P/2018 V5 (Trujillo-Sheppard)
Epoch 2018 Oct. 9.0 TT = JDT 2458400.5
T 2018 Oct. 3.80476 TT                                  MPCW
q   4.7076430            (2000.0)            P               Q
n   0.03674337     Peri.  260.80204     +0.30437844     -0.95214852
a   8.9608680      Node   171.32487     +0.93007841     +0.29079386
e   0.4746443      Incl.   10.58004     +0.20568887     +0.09408575
P  26.82
From 19 observations 2017 Sept. 28-2019 Feb. 1, mean residual 0".2.

    P/2018 V5 (Trujillo-Sheppard)
Epoch 2045 Sept. 17.0 TT = JDT 2468240.5
T 2045 Aug. 28.70870 TT                                 MPCW
q   4.7252454            (2000.0)            P               Q
n   0.03632773     Peri.  260.72963     +0.30869936     -0.95073945
a   9.0290883      Node   171.13398     +0.92872977     +0.29487000
e   0.4766642      Incl.   10.56930     +0.20534295     +0.09563568
P  27.13
From 19 observations 2017 Sept. 28-2019 Feb. 1, mean residual 0".2.

    P/2018 V5 (Trujillo-Sheppard)
Epoch 2019 Apr. 27.0 TT = JDT 2458600.5
T 2018 Oct. 3.57319 TT                                  MPCW
q   4.7074798            (2000.0)            P               Q
n   0.03675794     Peri.  260.78409     +0.30482424     -0.95200505
a   8.9584988      Node   171.31582     +0.92994363     +0.29122317
e   0.4745236      Incl.   10.58017     +0.20563809     +0.09420961
P  26.81
From 19 observations 2017 Sept. 28-2019 Feb. 1, mean residual 0".2.

Ephemeris:
    P/2018 V5 (Trujillo-Sheppard)
Date    TT    R. A. (2000) Decl.     Delta      r     Elong.  Phase   m1
2019 01 04    05 11 28.1 +09 51 55   3.8457  4.7345   151.7     5.7  22.2
...
2019 01 19    05 06 52.7 +10 12 08   3.9793  4.7438   136.7     8.2  22.3
...
2019 01 27    05 05 32.5 +10 27 34   4.0710  4.7494   128.7     9.3  22.3
...
2019 02 02    05 05 06.4 +10 40 53   4.1474  4.7538   122.8    10.0  22.4
2019 02 03    05 05 05.0 +10 43 14   4.1608  4.7546   121.8    10.1  22.4
2019 02 04    05 05 04.4 +10 45 37   4.1742  4.7553   120.8    10.3  22.4
...
2019 02 10    05 05 18.9 +11 00 31   4.2579  4.7601   115.0    10.8  22.4
...
2019 02 18    05 06 25.9 +11 21 46   4.3760  4.7667   107.5    11.4  22.5
...
2019 03 05    05 10 51.9 +12 03 55   4.6101  4.7801    93.8    11.9  22.6

(CBET 4607、MPEC 2019-C18)

スレッド表示 | 古いものから 前のトピック | 次のトピック | トップ

投稿するにはまず登録を
 
© 1999 Tsutomu Seki.